When you browse on this site, cookies collect data to enhance your experience and personalize the content and advertising you see.
Visit our Privacy Policy to learn more. By continuing to use the site, you agree to this use of cookies and data.
  • In Deutschland
  • Länderverzeichnis
  • Für 7 Tage
  • Wassertemperatur
  • Wetterkarte
  • Widgets
  • user-avatar
    Anmelden

    Stündliche Wetter Fadyushina

    Heute, 22 Oktober, Dienstag

    Zeit Temperatur Niederschläge Wind Luftdruck Luftfeuchtigkeit
    00:00 -1°C° 0 mm 4 m/S 756 mmHg 95%
    01:00 0°C° 0 mm 4 m/S 755 mmHg 95%
    02:00 0°C° 0.1 mm 5 m/S 755 mmHg 95%
    03:00 0°C° 0.1 mm 5 m/S 754 mmHg 95%
    04:00 +1°C° 0 mm 5 m/S 753 mmHg 94%
    05:00 +1°C° 0.3 mm 5 m/S 752 mmHg 94%
    06:00 +2°C° 0.3 mm 6 m/S 751 mmHg 94%
    07:00 +2°C° 0.3 mm 6 m/S 750 mmHg 94%
    08:00 +3°C° 1.3 mm 7 m/S 750 mmHg 93%
    09:00 +3°C° 1.3 mm 7 m/S 749 mmHg 93%
    10:00 +4°C° 1.3 mm 7 m/S 749 mmHg 92%
    11:00 +4°C° 0 mm 7 m/S 749 mmHg 90%
    12:00 +5°C° 0 mm 7 m/S 749 mmHg 89%
    13:00 +5°C° 0 mm 6 m/S 749 mmHg 87%
    14:00 +5°C° 0 mm 6 m/S 749 mmHg 86%
    15:00 +5°C° 0 mm 5 m/S 749 mmHg 85%
    16:00 +3°C° 0 mm 5 m/S 750 mmHg 84%
    17:00 +2°C° 0 mm 5 m/S 750 mmHg 84%
    18:00 +1°C° 0 mm 4 m/S 750 mmHg 85%
    19:00 0°C° 0 mm 4 m/S 751 mmHg 85%
    20:00 0°C° 0 mm 4 m/S 751 mmHg 86%
    21:00 -1°C° 0 mm 4 m/S 751 mmHg 87%
    22:00 0°C° 0 mm 3 m/S 752 mmHg 88%
    23:00 0°C° 0 mm 3 m/S 751 mmHg 89%

    Morgen, 23 Oktober, Mittwoch

    Zeit Temperatur Niederschläge Wind Luftdruck Luftfeuchtigkeit
    00:00 -1°C° 0 mm 3 m/S 751 mmHg 89%
    01:00 -1°C° 0 mm 3 m/S 751 mmHg 90%
    02:00 -1°C° 0 mm 3 m/S 752 mmHg 90%
    03:00 -1°C° 0 mm 3 m/S 752 mmHg 90%
    04:00 -1°C° 0 mm 3 m/S 752 mmHg 90%
    05:00 -3°C° 0 mm 4 m/S 752 mmHg 89%
    06:00 -3°C° 0 mm 4 m/S 752 mmHg 88%
    07:00 -3°C° 0 mm 4 m/S 752 mmHg 87%
    08:00 -2°C° 0 mm 4 m/S 752 mmHg 85%
    09:00 -2°C° 0 mm 4 m/S 752 mmHg 83%
    10:00 -1°C° 0 mm 4 m/S 752 mmHg 80%
    11:00 -1°C° 0 mm 4 m/S 752 mmHg 79%
    12:00 0°C° 0 mm 4 m/S 751 mmHg 78%
    13:00 +1°C° 0 mm 5 m/S 751 mmHg 77%
    14:00 0°C° 0 mm 4 m/S 751 mmHg 79%
    15:00 0°C° 0 mm 4 m/S 750 mmHg 80%
    16:00 0°C° 0 mm 4 m/S 750 mmHg 82%
    17:00 0°C° 0 mm 4 m/S 749 mmHg 83%
    18:00 0°C° 0 mm 4 m/S 749 mmHg 84%
    19:00 0°C° 0 mm 5 m/S 748 mmHg 84%
    20:00 0°C° 0 mm 5 m/S 748 mmHg 85%
    21:00 +1°C° 0 mm 6 m/S 747 mmHg 87%
    22:00 +2°C° 0 mm 6 m/S 746 mmHg 88%
    23:00 +2°C° 0 mm 6 m/S 746 mmHg 87%

    übermorgen, 24 Oktober, Donnerstag

    Zeit Temperatur Niederschläge Wind Luftdruck Luftfeuchtigkeit
    00:00 +3°C° 0 mm 6 m/S 746 mmHg 87%
    01:00 +3°C° 0 mm 6 m/S 745 mmHg 86%
    02:00 +4°C° 0.1 mm 6 m/S 745 mmHg 87%
    03:00 +4°C° 0.1 mm 6 m/S 745 mmHg 88%
    04:00 +4°C° 0.1 mm 6 m/S 745 mmHg 89%
    05:00 +5°C° 0.1 mm 5 m/S 746 mmHg 89%
    06:00 +3°C° 0.1 mm 5 m/S 747 mmHg 89%
    07:00 +4°C° 0.1 mm 4 m/S 748 mmHg 89%
    08:00 +4°C° 0 mm 4 m/S 748 mmHg 86%
    09:00 +3°C° 0 mm 5 m/S 749 mmHg 83%
    10:00 +3°C° 0 mm 5 m/S 749 mmHg 79%
    11:00 +3°C° 0 mm 5 m/S 750 mmHg 79%
    12:00 +3°C° 0 mm 5 m/S 750 mmHg 78%
    13:00 +3°C° 0 mm 5 m/S 750 mmHg 77%
    14:00 +4°C° 0 mm 4 m/S 751 mmHg 79%
    15:00 +3°C° 0 mm 3 m/S 751 mmHg 80%
    16:00 +3°C° 0 mm 3 m/S 751 mmHg 81%
    17:00 +3°C° 0 mm 3 m/S 752 mmHg 81%
    18:00 +3°C° 0 mm 3 m/S 752 mmHg 81%
    19:00 +3°C° 0 mm 3 m/S 753 mmHg 81%
    20:00 +3°C° 0 mm 3 m/S 753 mmHg 81%
    21:00 +3°C° 0 mm 3 m/S 753 mmHg 80%
    22:00 +2°C° 0 mm 3 m/S 753 mmHg 80%
    23:00 +2°C° 0 mm 3 m/S 753 mmHg 83%

    25 Oktober, Freitag

    Zeit Temperatur Niederschläge Wind Luftdruck Luftfeuchtigkeit
    00:00 +1°C° 0 mm 3 m/S 753 mmHg 87%
    01:00 -1°C° 0 mm 4 m/S 753 mmHg 90%
    02:00 -1°C° 0 mm 4 m/S 753 mmHg 90%
    03:00 -1°C° 0 mm 4 m/S 753 mmHg 90%
    04:00 -1°C° 0 mm 4 m/S 754 mmHg 90%
    05:00 -1°C° 0 mm 4 m/S 754 mmHg 89%
    06:00 -1°C° 0 mm 4 m/S 754 mmHg 88%
    07:00 -1°C° 0 mm 4 m/S 754 mmHg 88%
    08:00 0°C° 0 mm 4 m/S 754 mmHg 86%
    09:00 +1°C° 0 mm 4 m/S 754 mmHg 84%
    10:00 +1°C° 0 mm 5 m/S 754 mmHg 83%
    11:00 +1°C° 0.1 mm 4 m/S 754 mmHg 86%
    12:00 +1°C° 0.1 mm 4 m/S 754 mmHg 89%
    13:00 +1°C° 0.1 mm 4 m/S 753 mmHg 92%
    14:00 +1°C° 0.2 mm 4 m/S 753 mmHg 93%
    15:00 +1°C° 0.2 mm 4 m/S 753 mmHg 95%
    16:00 +1°C° 0.2 mm 4 m/S 753 mmHg 97%
    17:00 +1°C° 0.1 mm 4 m/S 753 mmHg 95%
    18:00 +1°C° 0.1 mm 4 m/S 753 mmHg 93%
    19:00 +3°C° 0.1 mm 3 m/S 753 mmHg 92%
    20:00 +3°C° 0 mm 4 m/S 753 mmHg 91%
    21:00 +3°C° 0 mm 4 m/S 753 mmHg 90%
    22:00 +2°C° 0 mm 5 m/S 753 mmHg 89%
    23:00 +2°C° 0 mm 5 m/S 753 mmHg 89%

    26 Oktober, Samstag

    Zeit Temperatur Niederschläge Wind Luftdruck Luftfeuchtigkeit
    00:00 +3°C° 0 mm 5 m/S 753 mmHg 89%
    01:00 +3°C° 0 mm 5 m/S 753 mmHg 89%
    02:00 +3°C° 0 mm 5 m/S 754 mmHg 89%
    03:00 +4°C° 0 mm 4 m/S 754 mmHg 89%
    04:00 +3°C° 0 mm 4 m/S 755 mmHg 88%
    05:00 +3°C° 0 mm 4 m/S 755 mmHg 90%
    06:00 +2°C° 0 mm 3 m/S 756 mmHg 91%
    07:00 +2°C° 0 mm 2 m/S 756 mmHg 93%
    08:00 +4°C° 0 mm 1 m/S 757 mmHg 92%
    09:00 +5°C° 0 mm 1 m/S 757 mmHg 91%
    10:00 +5°C° 0 mm 1 m/S 757 mmHg 90%
    11:00 +5°C° 0 mm 1 m/S 757 mmHg 90%
    12:00 +5°C° 0 mm 2 m/S 757 mmHg 91%
    13:00 +5°C° 0 mm 2 m/S 757 mmHg 92%
    14:00 +4°C° 0 mm 3 m/S 757 mmHg 90%
    15:00 +5°C° 0 mm 3 m/S 757 mmHg 88%
    16:00 +5°C° 0 mm 4 m/S 756 mmHg 87%
    17:00 +5°C° 0 mm 5 m/S 756 mmHg 86%
    18:00 +5°C° 0 mm 5 m/S 756 mmHg 84%
    19:00 +5°C° 0 mm 6 m/S 755 mmHg 83%
    20:00 +5°C° 0 mm 6 m/S 755 mmHg 84%
    21:00 +5°C° 0 mm 6 m/S 754 mmHg 85%
    22:00 +5°C° 0 mm 6 m/S 753 mmHg 85%
    23:00 +5°C° 0 mm 6 m/S 753 mmHg 86%

    27 Oktober, Sonntag

    Zeit Temperatur Niederschläge Wind Luftdruck Luftfeuchtigkeit
    00:00 +7°C° 0 mm 6 m/S 753 mmHg 87%
    01:00 +7°C° 0 mm 6 m/S 752 mmHg 87%
    02:00 +7°C° 0 mm 6 m/S 752 mmHg 87%
    03:00 +8°C° 0 mm 5 m/S 752 mmHg 87%
    04:00 +8°C° 0 mm 5 m/S 752 mmHg 87%
    05:00 +7°C° 0 mm 5 m/S 751 mmHg 86%
    06:00 +7°C° 0 mm 5 m/S 751 mmHg 86%
    07:00 +7°C° 0 mm 5 m/S 751 mmHg 85%
    08:00 +7°C° 0 mm 5 m/S 751 mmHg 83%
    09:00 +8°C° 0 mm 5 m/S 751 mmHg 81%
    10:00 +8°C° 0 mm 6 m/S 751 mmHg 80%
    11:00 +9°C° 0 mm 6 m/S 750 mmHg 76%
    12:00 +10°C° 0 mm 6 m/S 750 mmHg 72%
    13:00 +11°C° 0 mm 6 m/S 750 mmHg 68%
    14:00 +11°C° 0 mm 6 m/S 749 mmHg 68%
    15:00 +11°C° 0 mm 6 m/S 749 mmHg 69%
    16:00 +10°C° 0 mm 6 m/S 749 mmHg 70%
    17:00 +10°C° 0 mm 7 m/S 748 mmHg 73%
    18:00 +10°C° 0 mm 7 m/S 748 mmHg 75%
    19:00 +10°C° 0 mm 7 m/S 748 mmHg 78%
    20:00 +9°C° 0 mm 7 m/S 748 mmHg 78%
    21:00 +9°C° 0 mm 7 m/S 747 mmHg 78%
    22:00 +9°C° 0 mm 7 m/S 747 mmHg 78%
    23:00 +9°C° 0 mm 7 m/S 747 mmHg 78%

    28 Oktober, Montag

    Zeit Temperatur Niederschläge Wind Luftdruck Luftfeuchtigkeit
    00:00 +8°C° 0 mm 7 m/S 746 mmHg 77%
    01:00 +8°C° 0 mm 7 m/S 746 mmHg 77%
    02:00 +8°C° 0 mm 7 m/S 746 mmHg 76%
    03:00 +8°C° 0 mm 7 m/S 745 mmHg 75%
    04:00 +6°C° 0 mm 7 m/S 745 mmHg 74%
    05:00 +6°C° 0 mm 7 m/S 744 mmHg 74%
    06:00 +6°C° 0 mm 7 m/S 744 mmHg 73%
    07:00 +6°C° 0 mm 7 m/S 744 mmHg 73%
    08:00 +8°C° 0 mm 7 m/S 743 mmHg 71%
    09:00 +8°C° 0 mm 7 m/S 743 mmHg 69%
    10:00 +9°C° 0 mm 7 m/S 743 mmHg 67%
    11:00 +9°C° 0 mm 7 m/S 742 mmHg 68%
    12:00 +9°C° 0 mm 7 m/S 742 mmHg 69%
    13:00 +9°C° 0 mm 6 m/S 742 mmHg 70%
    14:00 +9°C° 0.1 mm 6 m/S 742 mmHg 72%
    15:00 +9°C° 0.1 mm 5 m/S 741 mmHg 74%
    16:00 +9°C° 0.1 mm 5 m/S 741 mmHg 76%
    17:00 +9°C° 0 mm 5 m/S 741 mmHg 76%
    18:00 +8°C° 0 mm 5 m/S 741 mmHg 76%
    19:00 +8°C° 0 mm 5 m/S 741 mmHg 76%
    20:00 +8°C° 0 mm 5 m/S 741 mmHg 78%
    21:00 +8°C° 0 mm 4 m/S 740 mmHg 80%
    22:00 +8°C° 0 mm 4 m/S 740 mmHg 82%
    23:00 +7°C° 0.4 mm 4 m/S 740 mmHg 85%
    Mehr zeigen